| time (UTC) | temp F | wind direction | speed MPH | gust MPH | rain 1hr in | rain 24hr in | rain mn in | humidity % | barometer mb |
| 20260901060859 | 71 | 225 | 0.0 | 0.0 | 0.00 | 0.14 | 0.00 | 87 | 1000.0 |
| 20260901055357 | 71 | 225 | 0.0 | 0.0 | 0.00 | 0.14 | 0.00 | 87 | 1000.0 |
| 20260901053857 | 71 | 203 | 0.0 | 0.0 | 0.00 | 0.14 | 0.00 | 86 | 1000.0 |
| 20260901052359 | 72 | 203 | 0.0 | 0.0 | 0.00 | 0.14 | 0.00 | 86 | 1000.0 |
| 20260901050858 | 72 | 203 | 0.0 | 0.0 | 0.00 | 0.14 | 0.00 | 85 | 1000.0 |
| 20260901045358 | 72 | 180 | 0.0 | 0.0 | 0.00 | 0.14 | 0.00 | 85 | 1000.0 |
| 20260901043858 | 72 | 180 | 0.0 | 0.0 | 0.00 | 0.14 | 0.00 | 85 | 1000.0 |
| 20260901042357 | 73 | 225 | 0.0 | 0.0 | 0.00 | 0.14 | 0.00 | 84 | 1000.0 |
| 20260901040857 | 73 | 203 | 0.0 | 0.0 | 0.00 | 0.14 | 0.00 | 84 | 1000.0 |
| 20260901035358 | 73 | 248 | 0.0 | 0.0 | 0.00 | 0.14 | 0.14 | 83 | 1000.0 |
| 20260901033858 | 73 | 180 | 0.0 | 0.0 | 0.00 | 0.14 | 0.14 | 82 | 1000.0 |
| 20260901032358 | 73 | 158 | 0.0 | 0.0 | 0.00 | 0.14 | 0.14 | 82 | 1000.0 |
| 20260901030857 | 74 | 203 | 0.0 | 0.0 | 0.00 | 0.14 | 0.14 | 81 | 1000.0 |
| 20260901025359 | 74 | 203 | 0.0 | 0.0 | 0.00 | 0.14 | 0.14 | 80 | 1000.0 |
| 20260901023858 | 74 | 225 | 0.0 | 0.0 | 0.00 | 0.14 | 0.14 | 80 | 1000.0 |
| 20260901022359 | 74 | 225 | 0.0 | 0.0 | 0.00 | 0.14 | 0.14 | 80 | 1000.0 |
| 20260901020858 | 74 | 248 | 0.0 | 0.0 | 0.00 | 0.14 | 0.14 | 80 | 1000.0 |
| 20260901015358 | 74 | 248 | 0.0 | 0.0 | 0.00 | 0.14 | 0.14 | 79 | 1000.0 |
| 20260901013858 | 75 | 248 | 0.0 | 0.0 | 0.00 | 0.14 | 0.14 | 79 | 1000.0 |
| 20260901012359 | 75 | 248 | 0.0 | 0.0 | 0.00 | 0.14 | 0.14 | 78 | 1000.0 |
| 20260901010858 | 75 | 203 | 0.0 | 0.0 | 0.00 | 0.14 | 0.14 | 78 | 1000.0 |
| 20260901005357 | 75 | 203 | 0.0 | 0.0 | 0.00 | 0.14 | 0.14 | 77 | 999.8 |
| 20260901003858 | 76 | 248 | 0.0 | 0.0 | 0.00 | 0.14 | 0.14 | 76 | 999.3 |
| 20260901002358 | 77 | 248 | 0.0 | 0.0 | 0.00 | 0.14 | 0.14 | 76 | 999.3 |
| 20260901000858 | 77 | 158 | 0.0 | 0.0 | 0.00 | 0.14 | 0.14 | 75 | 999.3 |
| 20260831235359 | 78 | 248 | 0.0 | 0.0 | 0.00 | 0.14 | 0.14 | 74 | 999.3 |
| 20260831233859 | 79 | 270 | 0.0 | 0.0 | 0.00 | 0.14 | 0.14 | 74 | 999.3 |
| 20260831232359 | 80 | 203 | 0.0 | 0.0 | 0.00 | 0.14 | 0.14 | 73 | 999.3 |
| 20260831230857 | 81 | 203 | 0.0 | 0.0 | 0.00 | 0.14 | 0.14 | 73 | 998.9 |
| 20260831225358 | 81 | 158 | 0.0 | 0.0 | 0.00 | 0.14 | 0.14 | 74 | 998.9 |
| 20260831223859 | 80 | 180 | 0.0 | 0.0 | 0.00 | 0.14 | 0.14 | 74 | 998.9 |
| 20260831222358 | 81 | 180 | 3.0 | 8.0 | 0.00 | 0.14 | 0.14 | 74 | 998.9 |
| 20260831220859 | 81 | 180 | 2.0 | 7.0 | 0.00 | 0.14 | 0.14 | 74 | 999.3 |
| 20260831215358 | 82 | 158 | 0.0 | 0.0 | 0.00 | 0.14 | 0.14 | 76 | 999.3 |
| 20260831213858 | 82 | 180 | 0.0 | 0.0 | 0.00 | 0.14 | 0.14 | 78 | 999.6 |
| 20260831212400 | 81 | 158 | 0.0 | 0.0 | 0.00 | 0.14 | 0.14 | 79 | 999.6 |
| 20260831210859 | 80 | 180 | 0.0 | 0.0 | 0.00 | 0.14 | 0.14 | 80 | 999.7 |
| 20260831205358 | 79 | 248 | 0.0 | 7.0 | 0.00 | 0.14 | 0.14 | 82 | 1000.0 |
| 20260831203858 | 78 | 158 | 0.0 | 0.0 | 0.00 | 0.14 | 0.14 | 81 | 1000.0 |
| 20260831202359 | 80 | 180 | 0.0 | 0.0 | 0.00 | 0.14 | 0.14 | 79 | 1000.3 |
| 20260831200858 | 81 | 180 | 1.0 | 6.0 | 0.00 | 0.14 | 0.14 | 78 | 1000.2 |
| 20260831195358 | 81 | 158 | 2.0 | 2.0 | 0.00 | 0.14 | 0.14 | 78 | 1000.3 |
| 20260831193858 | 81 | 158 | 0.0 | 2.0 | 0.00 | 0.14 | 0.14 | 78 | 1000.3 |
| 20260831192357 | 80 | 135 | 0.0 | 7.0 | 0.00 | 0.14 | 0.14 | 79 | 1000.3 |
| 20260831190858 | 79 | 158 | 0.0 | 0.0 | 0.00 | 0.14 | 0.14 | 80 | 1000.7 |
| 20260831185359 | 78 | 158 | 5.0 | 5.0 | 0.00 | 0.14 | 0.14 | 82 | 1001.3 |
| 20260831183858 | 77 | 135 | 0.0 | 6.0 | 0.00 | 0.14 | 0.14 | 87 | 1001.3 |
| 20260831182358 | 75 | 135 | 0.0 | 6.0 | 0.00 | 0.14 | 0.14 | 95 | 1002.0 |
| 20260831180858 | 74 | 90 | 0.0 | 5.0 | 0.00 | 0.14 | 0.14 | 91 | 1002.3 |
| 20260831175359 | 72 | 68 | 3.0 | 3.0 | 0.00 | 0.14 | 0.14 | 91 | 1002.7 |
| 20260831173857 | 72 | 90 | 0.0 | 0.0 | 0.00 | 0.14 | 0.14 | 92 | 1002.7 |
| 20260831172358 | 71 | 113 | 0.0 | 0.0 | 0.00 | 0.14 | 0.14 | 92 | 1002.7 |
| 20260831170859 | 71 | 113 | 0.0 | 0.0 | 0.00 | 0.14 | 0.14 | 92 | 1002.7 |
| 20260831165358 | 71 | 158 | 0.0 | 0.0 | 0.02 | 0.14 | 0.14 | 92 | 1002.3 |
| 20260831163859 | 71 | 158 | 0.0 | 0.0 | 0.04 | 0.14 | 0.14 | 92 | 1002.0 |
| 20260831162358 | 70 | 158 | 0.0 | 0.0 | 0.06 | 0.14 | 0.14 | 92 | 1002.0 |
| 20260831160858 | 70 | 180 | 0.0 | 0.0 | 0.06 | 0.14 | 0.14 | 92 | 1002.0 |
| 20260831155358 | 70 | 203 | 0.0 | 0.0 | 0.04 | 0.12 | 0.12 | 91 | 1002.7 |
| 20260831153859 | 70 | 270 | 0.0 | 0.0 | 0.04 | 0.10 | 0.10 | 91 | 1003.5 |
| 20260831152359 | 70 | 270 | 0.0 | 0.0 | 0.04 | 0.08 | 0.08 | 91 | 1004.0 |
| 20260831150858 | 70 | 270 | 0.0 | 0.0 | 0.04 | 0.10 | 0.08 | 91 | 1003.8 |
| 20260831145358 | 70 | 270 | 0.0 | 0.0 | 0.04 | 0.24 | 0.08 | 91 | 1004.0 |
| 20260831143858 | 70 | 270 | 0.0 | 0.0 | 0.02 | 0.22 | 0.06 | 91 | 1003.0 |
| 20260831142359 | 70 | 270 | 0.0 | 0.0 | 0.00 | 0.22 | 0.04 | 96 | 1003.3 |
| 20260831140858 | 69 | 248 | 0.0 | 0.0 | 0.00 | 0.27 | 0.04 | 96 | 1003.0 |
| 20260831135358 | 69 | 203 | 0.0 | 0.0 | 0.00 | 0.29 | 0.04 | 96 | 1002.8 |
| 20260831133858 | 69 | 203 | 0.0 | 0.0 | 0.00 | 0.31 | 0.04 | 96 | 1003.0 |
| 20260831132357 | 69 | 203 | 0.0 | 0.0 | 0.00 | 0.31 | 0.04 | 96 | 1002.7 |
| 20260831130858 | 69 | 203 | 0.0 | 0.0 | 0.00 | 0.39 | 0.04 | 96 | 1002.7 |
| 20260831125358 | 69 | 203 | 0.0 | 0.0 | 0.00 | 0.45 | 0.04 | 96 | 1002.7 |
| 20260831123858 | 69 | 203 | 0.0 | 0.0 | 0.00 | 0.49 | 0.04 | 95 | 1002.7 |
| 20260831122358 | 68 | 180 | 0.0 | 0.0 | 0.00 | 0.49 | 0.04 | 96 | 1002.0 |
| 20260831120857 | 68 | 180 | 0.0 | 0.0 | 0.00 | 0.49 | 0.04 | 96 | 1002.1 |
| 20260831115358 | 68 | 180 | 0.0 | 0.0 | 0.00 | 0.49 | 0.04 | 96 | 1002.0 |
| 20260831113858 | 68 | 180 | 0.0 | 0.0 | 0.00 | 0.51 | 0.04 | 96 | 1002.0 |
| 20260831112358 | 68 | 180 | 0.0 | 0.0 | 0.00 | 0.53 | 0.04 | 96 | 1002.0 |
| 20260831110857 | 68 | 180 | 0.0 | 0.0 | 0.04 | 0.55 | 0.04 | 89 | 1002.0 |
| 20260831105358 | 68 | 180 | 0.0 | 0.0 | 0.04 | 0.55 | 0.04 | 89 | 1002.0 |
| 20260831103858 | 68 | 180 | 0.0 | 0.0 | 0.04 | 0.57 | 0.04 | 89 | 1002.3 |
| 20260831102359 | 69 | 180 | 0.0 | 0.0 | 0.04 | 0.57 | 0.04 | 88 | 1002.3 |
| 20260831100859 | 69 | 180 | 0.0 | 0.0 | 0.00 | 0.53 | 0.00 | 87 | 1002.6 |
| 20260831095358 | 69 | 180 | 0.0 | 0.0 | 0.00 | 0.53 | 0.00 | 87 | 1002.3 |
| 20260831093858 | 69 | 180 | 0.0 | 0.0 | 0.00 | 0.53 | 0.00 | 87 | 1002.4 |
| 20260831092357 | 69 | 180 | 0.0 | 0.0 | 0.00 | 0.53 | 0.00 | 87 | 1002.4 |
| 20260831090859 | 69 | 180 | 0.0 | 0.0 | 0.00 | 0.53 | 0.00 | 87 | 1002.3 |
| 20260831085358 | 69 | 180 | 0.0 | 0.0 | 0.00 | 0.55 | 0.00 | 87 | 1002.6 |
| 20260831083859 | 69 | 180 | 0.0 | 0.0 | 0.00 | 0.55 | 0.00 | 86 | 1002.0 |
| 20260831082359 | 69 | 180 | 0.0 | 0.0 | 0.00 | 0.55 | 0.00 | 86 | 1002.0 |
| 20260831080858 | 69 | 180 | 0.0 | 0.0 | 0.00 | 0.55 | 0.00 | 86 | 1002.0 |
| 20260831075358 | 70 | 180 | 0.0 | 0.0 | 0.00 | 0.55 | 0.00 | 86 | 1002.0 |
| 20260831073858 | 70 | 180 | 0.0 | 0.0 | 0.00 | 0.55 | 0.00 | 86 | 1001.6 |
| 20260831072358 | 70 | 180 | 0.0 | 0.0 | 0.00 | 0.57 | 0.00 | 86 | 1002.0 |
| 20260831070859 | 70 | 180 | 0.0 | 0.0 | 0.00 | 0.57 | 0.00 | 86 | 1002.3 |
| 20260831065359 | 71 | 180 | 0.0 | 0.0 | 0.00 | 0.57 | 0.00 | 85 | 1002.3 |
| 20260831063858 | 71 | 180 | 0.0 | 0.0 | 0.00 | 0.57 | 0.00 | 85 | 1002.7 |
| 20260831062359 | 71 | 180 | 0.0 | 0.0 | 0.00 | 0.57 | 0.00 | 85 | 1002.7 |